| time (UTC) | temp F | wind direction | speed knots | gust knots | rain 1hr in | rain 24hr in | rain mn in | humidity % | barometer mb |
| 20260509162531 | 56 | 62 | 4.3 | 10.4 | 0.00 | 0.00 | 0.00 | 43 | 1015.3 |
| 20260509162030 | 56 | 57 | 3.5 | 10.4 | 0.00 | 0.00 | 0.00 | 43 | 1015.3 |
| 20260509161529 | 56 | 11 | 3.5 | 8.7 | 0.00 | 0.00 | 0.00 | 44 | 1015.2 |
| 20260509161032 | 55 | 29 | 2.6 | 7.8 | 0.00 | 0.00 | 0.00 | 46 | 1015.3 |
| 20260509160526 | 54 | 355 | 3.5 | 7.8 | 0.00 | 0.00 | 0.00 | 47 | 1015.3 |
| 20260509160026 | 54 | 355 | 1.7 | 10.4 | 0.00 | 0.00 | 0.00 | 47 | 1015.3 |
| 20260509155525 | 54 | 60 | 6.1 | 10.4 | 0.00 | 0.00 | 0.00 | 47 | 1015.3 |
| 20260509155023 | 54 | 24 | 2.6 | 7.8 | 0.00 | 0.00 | 0.00 | 48 | 1015.4 |
| 20260509154027 | 54 | 34 | 4.3 | 8.7 | 0.00 | 0.00 | 0.00 | 48 | 1015.3 |
| 20260509153530 | 54 | 34 | 4.3 | 8.7 | 0.00 | 0.00 | 0.00 | 48 | 1015.1 |
| 20260509153034 | 53 | 338 | 3.5 | 8.7 | 0.00 | 0.00 | 0.00 | 49 | 1015.1 |
| 20260509152524 | 53 | 11 | 3.5 | 7.8 | 0.00 | 0.00 | 0.00 | 50 | 1015.1 |
| 20260509152024 | 53 | 22 | 3.5 | 12.2 | 0.00 | 0.00 | 0.00 | 49 | 1015.1 |
| 20260509151523 | 52 | 292 | 2.6 | 12.2 | 0.00 | 0.00 | 0.00 | 51 | 1015.2 |
| 20260509151021 | 52 | 338 | 2.6 | 5.2 | 0.00 | 0.00 | 0.00 | 55 | 1015.1 |
| 20260509150523 | 52 | 31 | 1.7 | 5.2 | 0.00 | 0.00 | 0.00 | 54 | 1015.1 |
| 20260509150021 | 52 | 10 | 0.0 | 4.3 | 0.00 | 0.00 | 0.00 | 56 | 1015.1 |
| 20260509145520 | 51 | 63 | 0.0 | 3.5 | 0.00 | 0.00 | 0.00 | 59 | 1015.2 |
| 20260509145019 | 51 | 285 | 0.0 | 2.6 | 0.00 | 0.00 | 0.00 | 60 | 1015.1 |
| 20260509144018 | 49 | 269 | 0.0 | 2.6 | 0.00 | 0.00 | 0.00 | 64 | 1015.1 |
| 20260509143517 | 49 | 269 | 1.7 | 2.6 | 0.00 | 0.00 | 0.00 | 64 | 1015.0 |
| 20260509143017 | 49 | 282 | 0.9 | 3.5 | 0.00 | 0.00 | 0.00 | 64 | 1015.1 |
| 20260509142520 | 49 | 304 | 0.9 | 3.5 | 0.00 | 0.00 | 0.00 | 65 | 1015.0 |
| 20260509142016 | 48 | 9 | 0.9 | 3.5 | 0.00 | 0.00 | 0.00 | 65 | 1014.9 |
| 20260509141518 | 48 | 5 | 0.0 | 3.5 | 0.00 | 0.00 | 0.00 | 65 | 1014.9 |
| 20260509141014 | 48 | 38 | 0.9 | 3.5 | 0.00 | 0.00 | 0.00 | 65 | 1014.9 |
| 20260509140515 | 48 | 38 | 0.0 | 3.5 | 0.00 | 0.00 | 0.00 | 66 | 1014.8 |
| 20260509140015 | 47 | 23 | 1.7 | 3.5 | 0.00 | 0.00 | 0.00 | 67 | 1014.8 |
| 20260509135514 | 47 | 5 | 0.9 | 3.5 | 0.00 | 0.00 | 0.00 | 67 | 1014.8 |
| 20260509135014 | 47 | 30 | 0.9 | 3.5 | 0.00 | 0.00 | 0.00 | 68 | 1014.7 |
| 20260509134012 | 46 | 50 | 2.6 | 4.3 | 0.00 | 0.00 | 0.00 | 70 | 1014.5 |
| 20260509133512 | 46 | 5 | 2.6 | 4.3 | 0.00 | 0.00 | 0.00 | 71 | 1014.5 |
| 20260509133012 | 45 | 42 | 2.6 | 4.3 | 0.00 | 0.00 | 0.00 | 72 | 1014.4 |
| 20260509132512 | 45 | 19 | 1.7 | 4.3 | 0.00 | 0.00 | 0.00 | 72 | 1014.4 |
| 20260509132012 | 45 | 32 | 0.9 | 4.3 | 0.00 | 0.00 | 0.00 | 73 | 1014.4 |
| 20260509131514 | 44 | 33 | 0.9 | 4.3 | 0.00 | 0.00 | 0.00 | 74 | 1014.3 |
| 20260509131010 | 44 | 49 | 1.7 | 4.3 | 0.00 | 0.00 | 0.00 | 74 | 1014.3 |
| 20260509130511 | 44 | 13 | 2.6 | 4.3 | 0.00 | 0.00 | 0.00 | 75 | 1014.3 |
| 20260509130024 | 43 | 5 | 2.6 | 4.3 | 0.00 | 0.00 | 0.00 | 76 | 1014.2 |
| 20260509125509 | 43 | 22 | 1.7 | 3.5 | 0.00 | 0.00 | 0.00 | 77 | 1014.1 |
| 20260509125009 | 42 | 15 | 0.0 | 1.7 | 0.00 | 0.00 | 0.00 | 79 | 1014.1 |
| 20260509124010 | 41 | 15 | 0.0 | 0.9 | 0.00 | 0.00 | 0.00 | 80 | 1013.9 |
| 20260509123509 | 40 | 15 | 0.0 | 0.9 | 0.00 | 0.00 | 0.00 | 80 | 1013.9 |
| 20260509123009 | 40 | 15 | 0.0 | 0.9 | 0.00 | 0.00 | 0.00 | 81 | 1013.9 |
| 20260509122509 | 40 | 13 | 0.0 | 0.0 | 0.00 | 0.00 | 0.00 | 80 | 1013.7 |
| 20260509122008 | 39 | 13 | 0.0 | 0.0 | 0.00 | 0.00 | 0.00 | 81 | 1013.5 |
| 20260509121511 | 39 | 13 | 0.0 | 0.0 | 0.00 | 0.00 | 0.00 | 81 | 1013.5 |
| 20260509121007 | 39 | 13 | 0.0 | 0.0 | 0.00 | 0.00 | 0.00 | 82 | 1013.5 |
| 20260509120507 | 38 | 13 | 0.0 | 0.0 | 0.00 | 0.00 | 0.00 | 82 | 1013.3 |
| 20260509120007 | 38 | 13 | 0.0 | 0.0 | 0.00 | 0.00 | 0.00 | 83 | 1013.3 |
| 20260509115505 | 38 | 13 | 0.0 | 0.0 | 0.00 | 0.00 | 0.00 | 83 | 1013.1 |
| 20260509115005 | 37 | 14 | 0.0 | 0.0 | 0.00 | 0.00 | 0.00 | 83 | 1013.2 |
| 20260509114100 | 37 | 14 | 0.0 | 0.0 | 0.00 | 0.00 | 0.00 | 82 | 1012.9 |
| 20260509113603 | 37 | 14 | 0.0 | 0.0 | 0.00 | 0.00 | 0.00 | 81 | 1012.9 |
| 20260509113101 | 38 | 14 | 0.0 | 0.0 | 0.00 | 0.00 | 0.00 | 81 | 1012.9 |
| 20260509112557 | 38 | 14 | 0.0 | 0.0 | 0.00 | 0.00 | 0.00 | 81 | 1012.8 |
| 20260509112056 | 38 | 16 | 0.0 | 0.0 | 0.00 | 0.00 | 0.00 | 81 | 1012.7 |
| 20260509111556 | 39 | 16 | 0.0 | 0.0 | 0.00 | 0.00 | 0.00 | 82 | 1012.7 |
| 20260509111054 | 39 | 17 | 0.0 | 0.0 | 0.00 | 0.00 | 0.00 | 82 | 1012.5 |
| 20260509110558 | 39 | 17 | 0.0 | 1.7 | 0.00 | 0.00 | 0.00 | 82 | 1012.4 |
| 20260509110056 | 39 | 17 | 0.0 | 1.7 | 0.00 | 0.00 | 0.00 | 82 | 1012.4 |
| 20260509105552 | 39 | 16 | 0.0 | 0.9 | 0.00 | 0.00 | 0.00 | 81 | 1012.3 |
| 20260509105051 | 39 | 16 | 0.0 | 0.9 | 0.00 | 0.00 | 0.00 | 81 | 1012.1 |
| 20260509104652 | 39 | 16 | 0.0 | 2.6 | 0.00 | 0.00 | 0.00 | 81 | 1012.1 |
| 20260509104051 | 40 | 16 | 0.0 | 3.5 | 0.00 | 0.00 | 0.00 | 81 | 1012.0 |
| 20260509103551 | 40 | 23 | 1.7 | 4.3 | 0.00 | 0.00 | 0.00 | 81 | 1011.9 |
| 20260509103100 | 40 | 24 | 1.7 | 4.3 | 0.00 | 0.00 | 0.00 | 81 | 1011.8 |
| 20260509102550 | 40 | 33 | 1.7 | 4.3 | 0.00 | 0.00 | 0.00 | 81 | 1011.6 |
| 20260509102050 | 40 | 36 | 2.6 | 4.3 | 0.00 | 0.00 | 0.00 | 81 | 1011.6 |
| 20260509101601 | 40 | 28 | 1.7 | 3.5 | 0.00 | 0.00 | 0.00 | 81 | 1011.6 |
| 20260509101047 | 40 | 28 | 1.7 | 3.5 | 0.00 | 0.00 | 0.00 | 81 | 1011.5 |
| 20260509100547 | 41 | 28 | 1.7 | 3.5 | 0.00 | 0.00 | 0.00 | 81 | 1011.4 |
| 20260509100046 | 41 | 28 | 0.9 | 2.6 | 0.00 | 0.00 | 0.00 | 80 | 1011.3 |
| 20260509095545 | 41 | 28 | 0.9 | 3.5 | 0.00 | 0.00 | 0.00 | 80 | 1011.2 |
| 20260509095044 | 42 | 28 | 1.7 | 4.3 | 0.00 | 0.00 | 0.00 | 80 | 1011.2 |
| 20260509094645 | 42 | 26 | 1.7 | 4.3 | 0.00 | 0.00 | 0.00 | 80 | 1011.1 |
| 20260509094043 | 42 | 28 | 1.7 | 3.5 | 0.00 | 0.00 | 0.00 | 80 | 1011.1 |
| 20260509093540 | 42 | 20 | 1.7 | 2.6 | 0.00 | 0.00 | 0.00 | 80 | 1011.0 |
| 20260509093040 | 42 | 20 | 1.7 | 2.6 | 0.00 | 0.00 | 0.00 | 81 | 1011.0 |
| 20260509092539 | 42 | 20 | 1.7 | 2.6 | 0.00 | 0.00 | 0.00 | 81 | 1010.9 |
| 20260509092038 | 42 | 20 | 1.7 | 2.6 | 0.00 | 0.00 | 0.00 | 81 | 1010.7 |
| 20260509091537 | 42 | 20 | 0.0 | 1.7 | 0.00 | 0.00 | 0.00 | 80 | 1010.9 |
| 20260509091039 | 42 | 20 | 0.0 | 0.9 | 0.00 | 0.00 | 0.00 | 80 | 1010.5 |
| 20260509090538 | 42 | 20 | 0.0 | 1.7 | 0.00 | 0.00 | 0.00 | 80 | 1010.3 |
| 20260509090040 | 42 | 20 | 0.0 | 1.7 | 0.00 | 0.00 | 0.00 | 81 | 1010.3 |
| 20260509085533 | 42 | 20 | 0.0 | 0.9 | 0.00 | 0.00 | 0.00 | 80 | 1010.3 |
| 20260509085032 | 42 | 20 | 0.0 | 0.9 | 0.00 | 0.00 | 0.00 | 79 | 1010.2 |
| 20260509084632 | 42 | 20 | 0.0 | 1.7 | 0.00 | 0.00 | 0.00 | 79 | 1010.1 |
| 20260509084037 | 42 | 20 | 0.0 | 1.7 | 0.00 | 0.00 | 0.00 | 80 | 1010.0 |
| 20260509083537 | 42 | 20 | 0.9 | 2.6 | 0.00 | 0.00 | 0.00 | 79 | 1009.8 |
| 20260509083050 | 43 | 20 | 0.9 | 2.6 | 0.00 | 0.00 | 0.00 | 80 | 1009.6 |
| 20260509082534 | 43 | 20 | 0.9 | 2.6 | 0.00 | 0.00 | 0.00 | 79 | 1009.5 |
| 20260509082033 | 43 | 20 | 0.9 | 2.6 | 0.00 | 0.00 | 0.00 | 79 | 1009.6 |
| 20260509081532 | 44 | 20 | 0.9 | 2.6 | 0.00 | 0.00 | 0.00 | 78 | 1009.5 |
| 20260509081030 | 44 | 21 | 0.9 | 2.6 | 0.00 | 0.00 | 0.00 | 78 | 1009.4 |
| 20260509080528 | 45 | 21 | 1.7 | 3.5 | 0.00 | 0.00 | 0.00 | 78 | 1009.4 |
| 20260509080030 | 45 | 24 | 1.7 | 3.5 | 0.00 | 0.00 | 0.00 | 78 | 1009.4 |
| 20260509075531 | 45 | 45 | 0.9 | 2.6 | 0.00 | 0.00 | 0.00 | 78 | 1009.4 |
| 20260509075026 | 45 | 45 | 0.0 | 1.7 | 0.00 | 0.00 | 0.00 | 77 | 1009.4 |
| 20260509074625 | 46 | 45 | 0.0 | 0.0 | 0.00 | 0.00 | 0.00 | 77 | 1009.2 |
| 20260509074024 | 46 | 45 | 0.0 | 0.0 | 0.00 | 0.00 | 0.00 | 77 | 1009.3 |
| 20260509073524 | 46 | 45 | 0.0 | 1.7 | 0.00 | 0.00 | 0.00 | 76 | 1009.2 |
| 20260509073030 | 47 | 45 | 0.0 | 2.6 | 0.00 | 0.00 | 0.00 | 77 | 1009.2 |
| 20260509072524 | 47 | 45 | 0.9 | 4.3 | 0.00 | 0.00 | 0.00 | 77 | 1009.0 |
| 20260509072022 | 47 | 45 | 1.7 | 5.2 | 0.00 | 0.00 | 0.00 | 78 | 1008.9 |
| 20260509071530 | 46 | 44 | 2.6 | 5.2 | 0.00 | 0.00 | 0.00 | 78 | 1009.0 |
| 20260509071021 | 46 | 103 | 1.7 | 2.6 | 0.00 | 0.00 | 0.00 | 75 | 1008.9 |
| 20260509070524 | 46 | 103 | 1.7 | 2.6 | 0.00 | 0.00 | 0.00 | 73 | 1008.9 |
| 20260509070018 | 47 | 103 | 0.9 | 3.5 | 0.00 | 0.00 | 0.00 | 72 | 1008.7 |
| 20260509065517 | 47 | 103 | 1.7 | 3.5 | 0.00 | 0.00 | 0.00 | 72 | 1008.5 |
| 20260509065015 | 48 | 103 | 0.0 | 0.0 | 0.00 | 0.00 | 0.00 | 69 | 1008.5 |
| 20260509064615 | 49 | 103 | 0.0 | 0.0 | 0.00 | 0.00 | 0.00 | 70 | 1008.4 |
| 20260509064011 | 49 | 103 | 0.0 | 0.0 | 0.00 | 0.00 | 0.00 | 70 | 1008.4 |
| 20260509063511 | 50 | 103 | 0.0 | 0.0 | 0.00 | 0.00 | 0.00 | 69 | 1008.4 |
| 20260509063018 | 50 | 103 | 0.0 | 0.0 | 0.00 | 0.00 | 0.00 | 68 | 1008.3 |
| 20260509062509 | 51 | 103 | 0.0 | 0.0 | 0.00 | 0.00 | 0.00 | 67 | 1008.2 |
| 20260509062007 | 51 | 103 | 0.0 | 0.9 | 0.00 | 0.00 | 0.00 | 67 | 1008.2 |
| 20260509061508 | 51 | 103 | 0.0 | 0.9 | 0.00 | 0.00 | 0.00 | 67 | 1007.9 |
| 20260509061012 | 52 | 103 | 0.0 | 1.7 | 0.00 | 0.00 | 0.00 | 66 | 1007.8 |
| 20260509060508 | 52 | 103 | 0.9 | 2.6 | 0.00 | 0.00 | 0.00 | 66 | 1007.8 |
| 20260509060008 | 53 | 103 | 0.9 | 5.2 | 0.00 | 0.00 | 0.00 | 65 | 1007.7 |
| 20260509055507 | 53 | 103 | 0.9 | 6.1 | 0.00 | 0.00 | 0.00 | 64 | 1007.6 |
| 20260509055007 | 53 | 111 | 2.6 | 6.1 | 0.00 | 0.00 | 0.00 | 64 | 1007.7 |
| 20260509054618 | 53 | 103 | 2.6 | 5.2 | 0.00 | 0.00 | 0.00 | 62 | 1007.8 |
| 20260509054006 | 53 | 103 | 2.6 | 5.2 | 0.00 | 0.00 | 0.00 | 62 | 1007.7 |
| 20260509053506 | 53 | 103 | 0.9 | 3.5 | 0.00 | 0.00 | 0.00 | 62 | 1007.7 |
| 20260509053006 | 53 | 103 | 0.9 | 5.2 | 0.00 | 0.00 | 0.00 | 62 | 1007.6 |
| 20260509052506 | 54 | 103 | 1.7 | 5.2 | 0.00 | 0.00 | 0.00 | 61 | 1007.6 |
| 20260509052005 | 54 | 103 | 0.0 | 3.5 | 0.00 | 0.00 | 0.00 | 61 | 1007.5 |
| 20260509051505 | 54 | 103 | 0.9 | 5.2 | 0.00 | 0.00 | 0.00 | 61 | 1007.6 |
| 20260509051005 | 55 | 109 | 1.7 | 5.2 | 0.00 | 0.00 | 0.00 | 60 | 1007.6 |
| 20260509050505 | 55 | 74 | 0.9 | 5.2 | 0.00 | 0.00 | 0.00 | 59 | 1007.5 |
| 20260509050005 | 55 | 88 | 1.7 | 12.2 | 0.00 | 0.00 | 0.00 | 59 | 1007.5 |
| 20260509045508 | 55 | 63 | 4.3 | 12.2 | 0.00 | 0.00 | 0.00 | 58 | 1007.4 |
| 20260509045004 | 55 | 63 | 7.0 | 14.8 | 0.00 | 0.00 | 0.00 | 59 | 1007.5 |
| 20260509044704 | 56 | 61 | 7.0 | 12.2 | 0.00 | 0.00 | 0.00 | 59 | 1007.5 |
| 20260509044008 | 56 | 73 | 7.0 | 12.2 | 0.00 | 0.00 | 0.00 | 59 | 1007.3 |
| 20260509043506 | 56 | 67 | 3.5 | 13.0 | 0.00 | 0.00 | 0.00 | 58 | 1006.9 |
| 20260509043005 | 56 | 67 | 6.1 | 13.0 | 0.00 | 0.00 | 0.00 | 57 | 1007.0 |
| 20260509042505 | 56 | 57 | 7.0 | 13.0 | 0.00 | 0.00 | 0.00 | 58 | 1007.0 |
| 20260509042008 | 56 | 59 | 6.1 | 10.4 | 0.00 | 0.00 | 0.00 | 59 | 1006.9 |
| 20260509041505 | 56 | 35 | 3.5 | 8.7 | 0.00 | 0.00 | 0.00 | 59 | 1006.7 |
| 20260509041005 | 56 | 55 | 4.3 | 7.8 | 0.00 | 0.00 | 0.00 | 59 | 1006.6 |
| 20260509040505 | 56 | 36 | 3.5 | 7.8 | 0.00 | 0.00 | 0.00 | 58 | 1006.7 |
| 20260509040008 | 56 | 31 | 2.6 | 7.8 | 0.00 | 0.00 | 0.00 | 58 | 1006.6 |
| 20260509035505 | 56 | 29 | 3.5 | 7.0 | 0.00 | 0.00 | 0.00 | 58 | 1006.7 |
| 20260509035005 | 56 | 31 | 2.6 | 7.0 | 0.00 | 0.00 | 0.00 | 58 | 1006.6 |
| 20260509034605 | 56 | 28 | 2.6 | 5.2 | 0.00 | 0.00 | 0.00 | 58 | 1006.3 |
| 20260509034003 | 56 | 30 | 2.6 | 7.0 | 0.00 | 0.00 | 0.00 | 57 | 1006.1 |
| 20260509033503 | 57 | 43 | 3.5 | 7.0 | 0.00 | 0.00 | 0.00 | 57 | 1006.0 |
| 20260509033002 | 57 | 37 | 3.5 | 6.1 | 0.00 | 0.00 | 0.00 | 57 | 1006.0 |
| 20260509032505 | 57 | 28 | 2.6 | 8.7 | 0.00 | 0.00 | 0.00 | 56 | 1006.2 |
| 20260509032002 | 57 | 42 | 4.3 | 8.7 | 0.00 | 0.00 | 0.00 | 57 | 1006.5 |
| 20260509031506 | 57 | 30 | 2.6 | 5.2 | 0.00 | 0.00 | 0.00 | 56 | 1006.6 |
| 20260509031001 | 57 | 32 | 2.6 | 5.2 | 0.00 | 0.00 | 0.00 | 56 | 1006.6 |
| 20260509030503 | 57 | 34 | 2.6 | 5.2 | 0.00 | 0.00 | 0.00 | 56 | 1006.5 |
| 20260509030001 | 57 | 45 | 2.6 | 5.2 | 0.00 | 0.00 | 0.00 | 56 | 1006.3 |
| 20260509025502 | 57 | 24 | 1.7 | 5.2 | 0.00 | 0.00 | 0.00 | 55 | 1006.1 |
| 20260509025002 | 58 | 38 | 2.6 | 7.0 | 0.00 | 0.00 | 0.00 | 54 | 1006.0 |
| 20260509024603 | 59 | 28 | 3.5 | 10.4 | 0.00 | 0.00 | 0.00 | 53 | 1005.8 |
| 20260509024002 | 59 | 17 | 3.5 | 10.4 | 0.00 | 0.00 | 0.00 | 53 | 1005.7 |
| 20260509023502 | 59 | 34 | 4.3 | 13.9 | 0.00 | 0.00 | 0.00 | 53 | 1005.5 |
| 20260509023002 | 59 | 19 | 4.3 | 13.9 | 0.00 | 0.00 | 0.00 | 52 | 1005.5 |
| 20260509022501 | 59 | 28 | 5.2 | 9.6 | 0.00 | 0.00 | 0.00 | 52 | 1005.4 |
| 20260509022001 | 60 | 26 | 5.2 | 9.6 | 0.00 | 0.00 | 0.00 | 51 | 1005.1 |
| 20260509021501 | 60 | 27 | 3.5 | 13.0 | 0.00 | 0.00 | 0.00 | 50 | 1005.3 |
| 20260509021000 | 61 | 46 | 4.3 | 13.9 | 0.00 | 0.00 | 0.00 | 50 | 1005.3 |
| 20260509020600 | 61 | 9 | 7.0 | 13.9 | 0.00 | 0.00 | 0.00 | 49 | 1005.1 |
| 20260509020108 | 61 | 9 | 6.1 | 13.0 | 0.00 | 0.00 | 0.00 | 48 | 1005.1 |
| 20260509015604 | 62 | 22 | 7.0 | 13.0 | 0.00 | 0.00 | 0.00 | 48 | 1004.8 |
| 20260509015101 | 62 | 32 | 5.2 | 11.3 | 0.00 | 0.00 | 0.00 | 49 | 1005.0 |
| 20260509014600 | 62 | 13 | 4.3 | 10.4 | 0.00 | 0.00 | 0.00 | 47 | 1005.2 |
| 20260509013559 | 64 | 5 | 3.5 | 7.8 | 0.00 | 0.00 | 0.00 | 40 | 1004.5 |
| 20260509013102 | 64 | 12 | 2.6 | 6.1 | 0.00 | 0.00 | 0.00 | 40 | 1004.2 |
| 20260509012558 | 64 | 22 | 1.7 | 7.0 | 0.00 | 0.00 | 0.00 | 39 | 1004.0 |
| 20260509012059 | 65 | 5 | 2.6 | 7.0 | 0.00 | 0.00 | 0.00 | 39 | 1003.9 |
| 20260509011600 | 65 | 28 | 2.6 | 9.6 | 0.00 | 0.00 | 0.00 | 38 | 1003.7 |
| 20260509011058 | 66 | 20 | 2.6 | 14.8 | 0.00 | 0.00 | 0.00 | 37 | 1003.7 |
| 20260509010558 | 67 | 43 | 2.6 | 5.2 | 0.00 | 0.00 | 0.00 | 32 | 1003.8 |
| 20260509010058 | 68 | 11 | 0.9 | 7.0 | 0.00 | 0.00 | 0.00 | 32 | 1003.6 |
| 20260509005558 | 69 | 360 | 3.5 | 12.2 | 0.00 | 0.00 | 0.00 | 32 | 1003.8 |
| 20260509005057 | 69 | 5 | 5.2 | 12.2 | 0.00 | 0.00 | 0.00 | 32 | 1003.7 |
| 20260509004601 | 70 | 360 | 2.6 | 14.8 | 0.00 | 0.00 | 0.00 | 28 | 1004.1 |
| 20260509003557 | 71 | 351 | 5.2 | 14.8 | 0.00 | 0.00 | 0.00 | 27 | 1004.1 |
| 20260509003059 | 71 | 308 | 3.5 | 7.8 | 0.00 | 0.00 | 0.00 | 26 | 1004.0 |
| 20260509002556 | 71 | 269 | 3.5 | 8.7 | 0.00 | 0.00 | 0.00 | 27 | 1003.8 |
| 20260509002057 | 71 | 283 | 0.9 | 8.7 | 0.00 | 0.00 | 0.00 | 27 | 1004.0 |
| 20260509001556 | 71 | 275 | 2.6 | 8.7 | 0.00 | 0.00 | 0.00 | 26 | 1003.9 |
| 20260509001055 | 72 | 281 | 3.5 | 9.6 | 0.00 | 0.00 | 0.00 | 26 | 1003.9 |
| 20260509000555 | 72 | 290 | 4.3 | 11.3 | 0.00 | 0.00 | 0.00 | 26 | 1003.9 |
| 20260509000100 | 73 | 323 | 6.1 | 13.9 | 0.00 | 0.00 | 0.00 | 25 | 1004.0 |
| 20260508235555 | 74 | 272 | 7.0 | 13.9 | 0.00 | 0.00 | 0.00 | 24 | 1004.1 |
| 20260508235055 | 74 | 263 | 6.1 | 12.2 | 0.00 | 0.00 | 0.00 | 25 | 1004.2 |
| 20260508234556 | 72 | 238 | 3.5 | 8.7 | 0.00 | 0.00 | 0.00 | 27 | 1004.3 |
| 20260508233555 | 72 | 265 | 4.3 | 10.4 | 0.00 | 0.00 | 0.00 | 26 | 1004.5 |
| 20260508233053 | 72 | 249 | 4.3 | 10.4 | 0.00 | 0.00 | 0.00 | 26 | 1004.6 |
| 20260508232554 | 73 | 266 | 5.2 | 11.3 | 0.00 | 0.00 | 0.00 | 26 | 1004.7 |
| 20260508232052 | 74 | 268 | 7.0 | 11.3 | 0.00 | 0.00 | 0.00 | 25 | 1004.8 |
| 20260508231551 | 72 | 330 | 3.5 | 9.6 | 0.00 | 0.00 | 0.00 | 28 | 1004.9 |
| 20260508231051 | 71 | 318 | 4.3 | 10.4 | 0.00 | 0.00 | 0.00 | 27 | 1004.9 |
| 20260508230554 | 71 | 308 | 3.5 | 10.4 | 0.00 | 0.00 | 0.00 | 27 | 1005.0 |
| 20260508230050 | 72 | 317 | 4.3 | 13.9 | 0.00 | 0.00 | 0.00 | 27 | 1005.0 |
| 20260508225549 | 72 | 315 | 5.2 | 13.9 | 0.00 | 0.00 | 0.00 | 27 | 1005.2 |
| 20260508225051 | 72 | 348 | 4.3 | 14.8 | 0.00 | 0.00 | 0.00 | 26 | 1005.3 |
| 20260508224611 | 73 | 309 | 4.3 | 13.0 | 0.00 | 0.00 | 0.00 | 25 | 1005.4 |
| 20260508223551 | 73 | 248 | 6.1 | 13.0 | 0.00 | 0.00 | 0.00 | 25 | 1005.4 |
| 20260508223053 | 74 | 262 | 5.2 | 11.3 | 0.00 | 0.00 | 0.00 | 25 | 1005.6 |
| 20260508222551 | 73 | 286 | 2.6 | 13.9 | 0.00 | 0.00 | 0.00 | 26 | 1005.7 |
| 20260508222049 | 73 | 262 | 5.2 | 13.9 | 0.00 | 0.00 | 0.00 | 25 | 1005.7 |
| 20260508221549 | 73 | 327 | 4.3 | 11.3 | 0.00 | 0.00 | 0.00 | 25 | 1005.6 |
| 20260508221048 | 73 | 323 | 6.1 | 11.3 | 0.00 | 0.00 | 0.00 | 24 | 1005.7 |
| 20260508220548 | 74 | 295 | 6.1 | 9.6 | 0.00 | 0.00 | 0.00 | 24 | 1005.7 |
| 20260508220052 | 74 | 334 | 6.1 | 13.9 | 0.00 | 0.00 | 0.00 | 24 | 1005.7 |
| 20260508215547 | 74 | 263 | 7.8 | 13.9 | 0.00 | 0.00 | 0.00 | 23 | 1006.0 |
| 20260508215048 | 75 | 275 | 6.1 | 15.6 | 0.00 | 0.00 | 0.00 | 22 | 1005.8 |
| 20260508214546 | 75 | 301 | 5.2 | 13.0 | 0.00 | 0.00 | 0.00 | 23 | 1006.0 |
| 20260508213544 | 74 | 262 | 4.3 | 12.2 | 0.00 | 0.00 | 0.00 | 24 | 1006.0 |
| 20260508213044 | 75 | 278 | 6.1 | 12.2 | 0.00 | 0.00 | 0.00 | 23 | 1006.2 |
| 20260508212544 | 75 | 273 | 6.1 | 12.2 | 0.00 | 0.00 | 0.00 | 23 | 1006.2 |
| 20260508212042 | 74 | 275 | 5.2 | 13.9 | 0.00 | 0.00 | 0.00 | 24 | 1006.3 |
| 20260508211548 | 74 | 270 | 7.0 | 13.9 | 0.00 | 0.00 | 0.00 | 23 | 1006.3 |
| 20260508211041 | 75 | 329 | 3.5 | 13.9 | 0.00 | 0.00 | 0.00 | 23 | 1006.6 |
| 20260508210540 | 74 | 280 | 6.1 | 13.9 | 0.00 | 0.00 | 0.00 | 24 | 1006.5 |
| 20260508210044 | 73 | 314 | 3.5 | 12.2 | 0.00 | 0.00 | 0.00 | 24 | 1006.7 |
| 20260508205543 | 73 | 290 | 7.0 | 12.2 | 0.00 | 0.00 | 0.00 | 23 | 1006.8 |
| 20260508205038 | 73 | 314 | 4.3 | 10.4 | 0.00 | 0.00 | 0.00 | 24 | 1006.9 |
| 20260508204637 | 74 | 259 | 6.1 | 13.9 | 0.00 | 0.00 | 0.00 | 23 | 1007.0 |
| 20260508203535 | 74 | 268 | 7.8 | 11.3 | 0.00 | 0.00 | 0.00 | 25 | 1007.0 |
| 20260508203041 | 73 | 226 | 4.3 | 14.8 | 0.00 | 0.00 | 0.00 | 24 | 1007.1 |
| 20260508202535 | 73 | 319 | 7.8 | 14.8 | 0.00 | 0.00 | 0.00 | 24 | 1007.2 |
| 20260508202036 | 73 | 13 | 4.3 | 13.0 | 0.00 | 0.00 | 0.00 | 24 | 1007.1 |
| 20260508201534 | 74 | 267 | 7.0 | 13.0 | 0.00 | 0.00 | 0.00 | 24 | 1007.1 |
| 20260508201032 | 73 | 252 | 5.2 | 13.9 | 0.00 | 0.00 | 0.00 | 24 | 1007.2 |
| 20260508200532 | 73 | 287 | 6.1 | 13.0 | 0.00 | 0.00 | 0.00 | 25 | 1007.2 |
| 20260508200033 | 73 | 267 | 4.3 | 10.4 | 0.00 | 0.00 | 0.00 | 25 | 1007.5 |
| 20260508195532 | 73 | 264 | 3.5 | 10.4 | 0.00 | 0.00 | 0.00 | 24 | 1007.5 |
| 20260508195028 | 72 | 330 | 2.6 | 10.4 | 0.00 | 0.00 | 0.00 | 25 | 1007.7 |
| 20260508194535 | 72 | 323 | 4.3 | 13.9 | 0.00 | 0.00 | 0.00 | 24 | 1007.9 |
| 20260508193532 | 72 | 308 | 4.3 | 13.9 | 0.00 | 0.00 | 0.00 | 24 | 1007.9 |
| 20260508193031 | 72 | 284 | 6.1 | 12.2 | 0.00 | 0.00 | 0.00 | 24 | 1008.0 |
| 20260508192532 | 71 | 256 | 3.5 | 10.4 | 0.00 | 0.00 | 0.00 | 24 | 1008.2 |
| 20260508192031 | 72 | 247 | 5.2 | 14.8 | 0.00 | 0.00 | 0.00 | 23 | 1008.1 |
| 20260508191535 | 72 | 243 | 5.2 | 14.8 | 0.00 | 0.00 | 0.00 | 25 | 1008.2 |
| 20260508191028 | 71 | 265 | 5.2 | 13.9 | 0.00 | 0.00 | 0.00 | 24 | 1008.4 |
| 20260508190529 | 70 | 110 | 1.7 | 12.2 | 0.00 | 0.00 | 0.00 | 23 | 1008.2 |
| 20260508190027 | 71 | 267 | 5.2 | 12.2 | 0.00 | 0.00 | 0.00 | 24 | 1008.5 |
| 20260508185527 | 71 | 261 | 3.5 | 9.6 | 0.00 | 0.00 | 0.00 | 25 | 1008.4 |
| 20260508185026 | 70 | 318 | 5.2 | 9.6 | 0.00 | 0.00 | 0.00 | 25 | 1008.6 |
| 20260508184526 | 70 | 301 | 3.5 | 8.7 | 0.00 | 0.00 | 0.00 | 24 | 1008.6 |
| 20260508183525 | 70 | 302 | 5.2 | 11.3 | 0.00 | 0.00 | 0.00 | 25 | 1008.9 |
| 20260508183031 | 69 | 325 | 1.7 | 12.2 | 0.00 | 0.00 | 0.00 | 25 | 1008.8 |
| 20260508182525 | 69 | 326 | 3.5 | 12.2 | 0.00 | 0.00 | 0.00 | 25 | 1009.0 |
| 20260508182025 | 70 | 211 | 5.2 | 12.2 | 0.00 | 0.00 | 0.00 | 25 | 1009.1 |
| 20260508181522 | 69 | 309 | 6.1 | 12.2 | 0.00 | 0.00 | 0.00 | 25 | 1009.2 |
| 20260508181021 | 69 | 317 | 3.5 | 9.6 | 0.00 | 0.00 | 0.00 | 25 | 1009.2 |
| 20260508180522 | 68 | 355 | 3.5 | 13.0 | 0.00 | 0.00 | 0.00 | 25 | 1009.3 |
| 20260508180023 | 69 | 257 | 5.2 | 13.0 | 0.00 | 0.00 | 0.00 | 25 | 1009.4 |
| 20260508175521 | 69 | 269 | 3.5 | 13.0 | 0.00 | 0.00 | 0.00 | 26 | 1009.5 |
| 20260508175021 | 69 | 273 | 6.1 | 13.0 | 0.00 | 0.00 | 0.00 | 25 | 1009.8 |
| 20260508174520 | 68 | 306 | 1.7 | 9.6 | 0.00 | 0.00 | 0.00 | 26 | 1009.7 |
| 20260508173516 | 68 | 281 | 3.5 | 12.2 | 0.00 | 0.00 | 0.00 | 26 | 1009.8 |
| 20260508173015 | 67 | 277 | 5.2 | 12.2 | 0.00 | 0.00 | 0.00 | 26 | 1010.0 |
| 20260508172517 | 68 | 271 | 4.3 | 8.7 | 0.00 | 0.00 | 0.00 | 26 | 1009.9 |
| 20260508172014 | 68 | 273 | 2.6 | 10.4 | 0.00 | 0.00 | 0.00 | 26 | 1010.0 |
| 20260508171515 | 68 | 234 | 5.2 | 10.4 | 0.00 | 0.00 | 0.00 | 26 | 1010.0 |
| 20260508171013 | 67 | 289 | 2.6 | 7.0 | 0.00 | 0.00 | 0.00 | 27 | 1010.0 |
| 20260508170512 | 67 | 336 | 2.6 | 9.6 | 0.00 | 0.00 | 0.00 | 26 | 1010.3 |
| 20260508170012 | 67 | 286 | 5.2 | 9.6 | 0.00 | 0.00 | 0.00 | 26 | 1010.2 |
| 20260508165511 | 66 | 261 | 2.6 | 8.7 | 0.00 | 0.00 | 0.00 | 27 | 1010.2 |
| 20260508165011 | 67 | 334 | 1.7 | 10.4 | 0.00 | 0.00 | 0.00 | 27 | 1010.2 |
| 20260508164510 | 66 | 282 | 4.3 | 10.4 | 0.00 | 0.00 | 0.00 | 28 | 1010.3 |
| 20260508163510 | 66 | 360 | 3.5 | 8.7 | 0.00 | 0.00 | 0.00 | 28 | 1010.3 |
| 20260508163012 | 65 | 276 | 0.9 | 7.0 | 0.00 | 0.00 | 0.00 | 28 | 1010.2 |